[[{"header":{"parameterUnit":"m.s-1","parameterCategory":1,"la1":30.2991,"la2":30.254,"lo1":-89.0895,"lo2":-89.0444,"dy":0.0017,"dx":0.0017,"nx":28,"ny":28,"refTime":"2025-01-05T03:00:00:Z","depth":0,"parameterNumber":2,"parameterNumberName":"U-component_of_WINDS"},"data":[0,0,0,0,0,0,0,0,0,0,0,0,0,0,0,0,0,0,0,0,0,0,0,0,0,0,0,0,0,0,0,0,0,0,0,0,0,0,0,0,0,0,0,0,0,0,0,0,0,0,0,0,0,0,0,0,0,0,1.6608,1.6608,0,1.6569,1.6568,1.6568,1.6516,1.6515,1.6514,1.6513,1.6475,1.6474,1.6474,0,0,0,0,0,0,0,0,0,0,0,0,0,1.6642,1.6641,1.6608,1.6608,1.6607,1.6569,1.6568,1.6568,1.6516,1.6515,1.6514,1.6513,1.6475,1.6474,1.6474,0,0,0,0,0,0,0,0,0,0,0,0,0,1.6617,1.6641,1.6609,1.6577,1.6574,1.6569,1.6568,1.6568,1.6516,1.6515,1.6513,1.6512,1.6475,1.6474,1.6474,1.6498,0,0,1.6473,1.6473,0,0,0,0,0,0,0,0,1.6619,1.6616,1.6582,1.6579,1.6575,1.6546,1.6566,1.6544,1.6516,1.6538,1.6513,1.6512,1.6499,1.6497,1.6492,1.6496,1.6495,1.6473,1.6473,1.6473,1.6473,0,0,0,0,0,0,0,1.662,1.6618,1.6593,1.6582,1.6578,1.6565,1.6561,1.6562,1.6527,1.6536,1.6532,1.6528,1.6497,1.6493,1.6491,1.6494,1.6473,1.6473,1.6473,1.6472,1.6517,1.6518,0,0,0,0,0,0,1.6627,1.6619,1.6594,1.6592,1.6594,1.6566,1.656,1.6557,1.6526,1.652,1.6529,1.6526,1.6494,1.6492,1.649,1.6516,1.6473,1.6472,1.6472,1.6515,1.6517,1.6518,0,0,0,0,0,0,1.6628,1.6625,1.6596,1.6604,1.66,1.6567,1.6563,1.6557,1.6552,1.6521,1.6515,1.6531,1.6493,1.649,1.6496,1.6514,1.6472,1.6472,1.6514,1.6516,1.6518,1.657,0,0,0,0,0,0,1.6629,1.6625,1.6634,1.6605,1.6599,1.6602,1.6564,1.6557,1.6551,1.6546,1.6521,1.6516,1.6492,1.6497,1.6496,1.6513,1.6472,1.6512,1.6515,1.6517,1.6566,1.6573,1.6579,0,0,0,0,0,1.663,1.665,1.6634,1.6631,1.6609,1.6604,1.66,1.6572,1.6553,1.6561,1.6542,1.6516,1.6512,1.6498,1.6497,1.6514,1.6511,1.6514,1.6517,1.6563,1.6572,1.6579,0,0,0,0,0,0,1.6682,1.6646,1.6628,1.6639,1.6625,1.6595,1.6604,1.6582,1.6573,1.6569,1.6535,1.653,1.654,1.6528,1.6512,1.6536,1.6508,1.6511,1.6544,1.6552,1.6558,1.6561,1.6471,0,0,0,0,0,1.6695,1.6693,1.6661,1.6674,1.6668,1.6638,1.6634,1.6613,1.6598,1.6592,1.6572,1.6559,1.6554,1.6552,1.6546,1.6564,1.6558,1.6575,1.6582,1.6587,1.659,1.66,1.6607,1.6528,1.6528,1.6528,0,0,1.6721,1.6701,1.6702,1.6684,1.6671,1.667,1.6633,1.6634,1.6633,1.6592,1.6597,1.6582,1.6565,1.6577,1.6582,1.6567,1.6611,1.6591,1.6596,1.6596,1.6603,1.6611,1.6618,1.6531,1.653,1.653,0,0,1.6768,1.6753,1.6762,1.6749,1.6729,1.6709,1.6712,1.6685,1.6674,1.6678,1.6647,1.6647,1.664,1.6629,1.6623,1.6668,1.6645,1.6667,1.6701,1.6711,1.6717,1.6722,1.6739,1.6745,1.667,1.667,1.667,0,1.6803,1.6801,1.677,1.6773,1.6766,1.6729,1.6738,1.6728,1.6708,1.6705,1.6688,1.6679,1.6665,1.6675,1.6686,1.6681,1.6684,1.667,1.6718,1.6723,1.6728,1.6743,1.675,1.6673,1.6673,1.6672,1.6672,0,1.6846,1.6845,1.6855,1.6836,1.683,1.6837,1.6808,1.6806,1.6787,1.6769,1.6774,1.6756,1.6746,1.6747,1.6727,1.6754,1.6746,1.6724,1.6696,1.6739,1.6753,1.6758,1.6677,1.6676,1.6675,1.6674,0,0,1.6924,1.6888,1.6892,1.6884,1.686,1.6859,1.6864,1.6854,1.6854,1.6842,1.6846,1.6842,1.6822,1.6815,1.6794,1.6803,1.6841,1.678,1.6779,1.6793,1.687,1.6886,1.6894,1.6825,1.6826,1.6827,1.6872,0,1.6967,1.6974,1.6946,1.696,1.696,1.6924,1.6929,1.6916,1.6899,1.6897,1.6879,1.6877,1.6851,1.6846,1.6853,1.6835,1.6856,1.6831,1.683,1.683,1.6835,1.6901,1.6918,1.6961,1.6877,1.6878,1.6878,0,1.7018,1.7008,1.7022,1.6998,1.6997,1.7002,1.6991,1.6989,1.6974,1.6961,1.6954,1.693,1.6935,1.6907,1.6914,1.6898,1.6896,1.6887,1.6888,1.6887,1.6857,1.6902,1.6974,1.6981,1.6887,1.6886,1.6885,0,1.7075,1.7065,1.7072,1.7066,1.7038,1.7042,1.7031,1.7014,1.701,1.7002,1.6999,1.6991,1.6987,1.6982,1.6957,1.6939,1.6967,1.6937,1.6957,1.6958,1.6965,1.6965,1.7038,1.6963,1.6963,1.6963,1.6963,0,1.7126,1.7136,1.7097,1.7102,1.7112,1.7082,1.7093,1.7079,1.7064,1.7066,1.7035,1.7038,1.7005,1.7004,1.6985,1.6994,1.6992,1.6983,1.6978,1.6986,1.6987,1.6984,1.6981,1.6965,1.6964,1.6964,1.6964,0,1.719,1.7165,1.717,1.7144,1.7138,1.7147,1.7124,1.7128,1.711,1.7113,1.7112,1.7084,1.7082,1.7057,1.7049,1.7036,1.7053,1.7042,1.7058,1.7054,1.7076,1.7075,1.715,1.7159,1.7079,1.708,1.708,0,1.7224,1.7231,1.7206,1.7205,1.7195,1.7193,1.7189,1.716,1.7157,1.7141,1.7147,1.7142,1.7136,1.7135,1.7114,1.7108,1.7097,1.7124,1.7096,1.7104,1.7098,1.7098,1.7099,1.713,1.7131,1.7132,1.7133,0,1.7288,1.7275,1.727,1.7262,1.7258,1.725,1.724,1.7241,1.7208,1.7207,1.7204,1.72,1.7192,1.7188,1.7179,1.7169,1.7146,1.7142,1.7146,1.7154,1.7164,1.716,1.7074,1.714,1.7139,1.7139,1.7138,1.7138,1.7338,1.7343,1.7326,1.7323,1.7312,1.7304,1.7306,1.7289,1.7286,1.7277,1.726,1.726,1.7245,1.7231,1.7222,1.7222,1.7209,1.7215,1.7217,1.7219,1.7223,1.7164,1.7221,1.722,1.722,1.722,1.722,0,1.7401,1.7389,1.7385,1.7372,1.737,1.7348,1.7336,1.7336,1.7336,1.7324,1.7319,1.7317,1.7313,1.7293,1.7287,1.7291,1.7281,1.7291,1.729,1.7289,1.7236,1.7233,1.73,1.73,1.73,1.73,1.73,1.73,1.7433,1.744,1.7426,1.7429,1.7416,1.7416,1.7411,1.7404,1.7394,1.7393,1.7389,1.7376,1.7361,1.7354,1.7351,1.7345,1.7344,1.7358,1.7349,1.73,1.7292,1.7285,1.7282,1.7358,1.7358,1.7402,1.7402,1.7403]},{"header":{"parameterUnit":"m.s-1","parameterCategory":1,"la1":30.2991,"la2":30.254,"lo1":-89.0895,"lo2":-89.0444,"dy":0.0017,"dx":0.0017,"nx":28,"ny":28,"refTime":"2025-01-05T03:00:00:Z","depth":0,"parameterNumber":3,"parameterNumberName":"V-component_of_WINDS"},"data":[0,0,0,0,0,0,0,0,0,0,0,0,0,0,0,0,0,0,0,0,0,0,0,0,0,0,0,0,0,0,0,0,0,0,0,0,0,0,0,0,0,0,0,0,0,0,0,0,0,0,0,0,0,0,0,0,0,0,7.1691,7.1693,0,7.1871,7.1873,7.1875,7.1893,7.1891,7.1889,7.1887,7.2066,7.2072,7.2079,0,0,0,0,0,0,0,0,0,0,0,0,0,7.1358,7.1364,7.169,7.1693,7.1695,7.187,7.1873,7.1875,7.1893,7.1891,7.1888,7.1886,7.2064,7.2072,7.2079,0,0,0,0,0,0,0,0,0,0,0,0,0,7.1516,7.1366,7.169,7.1725,7.173,7.187,7.1873,7.1876,7.1893,7.1891,7.1888,7.1885,7.2061,7.2071,7.208,7.2196,0,0,7.211,7.2114,0,0,0,0,0,0,0,0,7.1507,7.1528,7.1718,7.1723,7.1729,7.1857,7.1821,7.1983,7.1894,7.1831,7.1887,7.1884,7.1998,7.2013,7.2053,7.2204,7.2212,7.2111,7.2117,7.2121,7.2124,0,0,0,0,0,0,0,7.1496,7.1521,7.1762,7.172,7.1727,7.173,7.175,7.1852,7.1928,7.1836,7.1838,7.186,7.2001,7.2043,7.2057,7.2215,7.2111,7.2119,7.2125,7.2129,7.2473,7.2476,0,0,0,0,0,0,7.1479,7.1511,7.1756,7.1767,7.1609,7.1739,7.176,7.1818,7.1927,7.1941,7.1862,7.186,7.2028,7.2046,7.2063,7.2208,7.2121,7.213,7.2136,7.247,7.2474,7.2477,0,0,0,0,0,0,7.1472,7.1501,7.1749,7.164,7.1672,7.1747,7.1812,7.1823,7.1866,7.1946,7.1959,7.1892,7.2026,7.205,7.2164,7.2214,7.2135,7.2143,7.2466,7.2471,7.2475,7.2497,0,0,0,0,0,0,7.1462,7.1498,7.1544,7.1641,7.1677,7.1848,7.1815,7.1829,7.1883,7.1882,7.1978,7.1991,7.2026,7.2149,7.2174,7.2226,7.2151,7.2462,7.2468,7.2474,7.2492,7.2502,7.251,0,0,0,0,0,7.1451,7.1541,7.1546,7.1575,7.1736,7.185,7.1871,7.1912,7.1887,7.1934,7.1985,7.1988,7.2205,7.2161,7.2188,7.2245,7.2459,7.2466,7.2473,7.2488,7.25,7.251,0,0,0,0,0,0,7.1445,7.1554,7.1561,7.1686,7.1759,7.1853,7.1913,7.1923,7.2003,7.1998,7.2043,7.2065,7.2178,7.2222,7.2172,7.2364,7.2329,7.2342,7.2331,7.2343,7.2352,7.2339,7.2159,0,0,0,0,0,7.1459,7.1544,7.1634,7.1735,7.1772,7.1836,7.1887,7.1912,7.1989,7.202,7.208,7.2153,7.2238,7.2292,7.2375,7.2498,7.252,7.2551,7.256,7.2567,7.2578,7.2649,7.2664,7.2502,7.2501,7.2501,0,0,7.1487,7.1557,7.1608,7.1736,7.1796,7.1882,7.1862,7.1953,7.2018,7.2033,7.2146,7.2192,7.2277,7.2397,7.2453,7.2437,7.2628,7.2576,7.2582,7.2589,7.2658,7.2673,7.2687,7.2507,7.2506,7.2505,0,0,7.1584,7.1645,7.1738,7.1799,7.189,7.1933,7.1955,7.2049,7.2081,7.2195,7.2209,7.2285,7.243,7.2491,7.254,7.2662,7.2668,7.2687,7.2736,7.2804,7.2817,7.2828,7.2874,7.2889,7.2698,7.2698,7.2698,0,7.1607,7.174,7.1783,7.1876,7.1932,7.1952,7.2046,7.2103,7.2215,7.2253,7.2235,7.2419,7.2477,7.2613,7.2643,7.2682,7.2709,7.2677,7.2812,7.2824,7.2835,7.2879,7.2895,7.27,7.27,7.27,7.2699,0,7.1765,7.1856,7.1919,7.2032,7.2095,7.2187,7.2244,7.2303,7.2323,7.2367,7.2483,7.2554,7.2652,7.2686,7.2705,7.2825,7.2813,7.2803,7.2769,7.2852,7.2894,7.2911,7.2703,7.2702,7.2702,7.2701,0,0,7.1862,7.1999,7.2022,7.2074,7.2177,7.2248,7.2342,7.244,7.249,7.2568,7.2647,7.2771,7.2763,7.2819,7.2845,7.2905,7.2999,7.2888,7.289,7.2907,7.3138,7.3146,7.3165,7.3004,7.3007,7.3009,7.3131,0,7.1971,7.2141,7.2184,7.2328,7.2414,7.2436,7.2517,7.2589,7.2633,7.2711,7.2759,7.2846,7.2828,7.2863,7.2923,7.2975,7.3046,7.2967,7.3078,7.3082,7.3058,7.3186,7.3195,7.3306,7.3148,7.315,7.3152,0,7.2122,7.2206,7.236,7.2455,7.2492,7.2565,7.266,7.2735,7.2817,7.2845,7.2909,7.293,7.3028,7.2989,7.3124,7.3069,7.3117,7.3149,7.3155,7.3167,7.3123,7.3204,7.3343,7.336,7.3178,7.3176,7.3174,0,7.218,7.2331,7.2443,7.2487,7.26,7.2651,7.27,7.278,7.2837,7.2919,7.2957,7.3048,7.3098,7.3168,7.3213,7.318,7.3345,7.3309,7.3371,7.337,7.3406,7.3403,7.3556,7.3434,7.3434,7.3433,7.3433,0,7.2298,7.2392,7.2471,7.254,7.2646,7.2694,7.2797,7.2846,7.2917,7.2996,7.3018,7.3091,7.3145,7.3226,7.3261,7.3369,7.339,7.3415,7.3424,7.3414,7.3412,7.3447,7.3441,7.3438,7.3437,7.3436,7.3435,0,7.2381,7.2438,7.2562,7.266,7.2687,7.2761,7.2844,7.2912,7.2957,7.3056,7.3082,7.3152,7.3248,7.33,7.3418,7.3442,7.3564,7.3567,7.3537,7.3541,7.36,7.3595,7.3782,7.381,7.3668,7.367,7.3671,0,7.2453,7.2527,7.2634,7.2689,7.274,7.2829,7.2889,7.2938,7.2999,7.31,7.3155,7.3253,7.3334,7.3486,7.3546,7.3638,7.3644,7.3704,7.3658,7.3647,7.3647,7.3643,7.3651,7.3712,7.3713,7.3714,7.3715,0,7.2577,7.2602,7.2688,7.2786,7.2857,7.2935,7.3011,7.3055,7.3118,7.3185,7.3285,7.3348,7.3471,7.3568,7.3665,7.3713,7.3725,7.3729,7.3749,7.374,7.3721,7.3734,7.356,7.3725,7.3724,7.3723,7.3723,7.3722,7.2658,7.2725,7.2812,7.2908,7.2971,7.3044,7.3113,7.3168,7.3253,7.336,7.3383,7.3489,7.357,7.3702,7.3754,7.3836,7.3824,7.3852,7.3859,7.3866,7.3869,7.3707,7.3854,7.3853,7.3853,7.3853,7.3853,0,7.2784,7.2842,7.2929,7.3038,7.3114,7.3121,7.3207,7.3269,7.3363,7.3439,7.3519,7.3634,7.3729,7.3798,7.3894,7.3947,7.3955,7.3971,7.3968,7.398,7.3873,7.3848,7.3963,7.3963,7.3963,7.3963,7.3963,7.3963,7.2859,7.2973,7.3009,7.3156,7.3212,7.3318,7.3367,7.3434,7.3495,7.3624,7.3704,7.3749,7.3823,7.3925,7.4012,7.403,7.4065,7.4081,7.4099,7.3998,7.3987,7.3976,7.3952,7.4087,7.4088,7.4199,7.42,7.42]}]]